Flag for Finland Weather past 2 weeks in Rovaniemi, Finland

Now
52 °F

Sunny.


Feels Like: 49 °F
Forecast: 45 / 56 °F
Wind: 8 mph from Southwest

Location: Rovaniemi Airport

Current Time: Aug 31, 2015 at 9:06:37 PM

Latest Report: Aug 31, 2015 at 8:20 PM


Visibility: 10 mi

Pressure: 29.86 "Hg

Humidity: 100%

Dew point: 52 °F

Location of RovaniemiLocation

Historic Weather in Rovaniemi — Graph

°F

Rovaniemi temperature yesterday

Maximum temperature yesterday: 64 °F (at 5:50 PM)
Minimum temperature yesterday: 46 °F (at 4:50 AM)
Average temperature yesterday: 54 °F

Past Weeks' High & Low Weather Summary

 TemperatureHumidityPressure
High75 °F (Aug 20, 3:50 PM)100% (Aug 18, 4:20 AM)30.39 "Hg (Aug 18, 4:20 AM)
Low46 °F (Aug 17, 4:50 AM)31% (Aug 17, 5:20 PM)29.47 "Hg (Aug 29, 3:20 AM)
Average58 °F83%30.07 "Hg
* Reported Aug 16 7:20 PM — Aug 31 7:50 PM, Rovaniemi, Weather by CustomWeather, © 2015

Note: Actual official high and low records may vary slightly from our data, if they occured in-between our weather recording intervals... More about our weather records

Advertising

Rovaniemi weather history for previous 24 hours

 ConditionsComfort  
Time TempWeatherWind HumidityBarometerVisibility
7:50 PM
Mon, Aug 31
52 °FSunny.6 mph100%29.86 "Hg10 mi
7:20 PM52 °FSprinkles. Partly sunny.6 mph94%29.86 "HgN/A
6:50 PM54 °FSprinkles. Broken clouds.13 mph88%29.89 "HgN/A
6:20 PM59 °FScattered showers. Partly sunny.8 mph72%29.86 "HgN/A
5:50 PM59 °FSprinkles. Partly sunny.9 mph72%29.86 "HgN/A
5:20 PM59 °FBroken clouds.9 mph72%29.86 "HgN/A
4:50 PM61 °FBroken clouds.14 mph59%29.86 "HgN/A
4:20 PM63 °FScattered clouds.15 mph56%29.86 "HgN/A
3:50 PM63 °FScattered clouds.15 mph56%29.86 "HgN/A
3:20 PM63 °FPartly sunny.15 mph59%29.86 "HgN/A
2:50 PM63 °FScattered clouds.18 mph56%29.86 "HgN/A
2:20 PM61 °FPassing clouds.16 mph59%29.86 "HgN/A
1:50 PM63 °FPassing clouds.17 mph56%29.89 "HgN/A
1:20 PM61 °FPassing clouds.18 mph59%29.89 "HgN/A
12:50 PM61 °FPassing clouds.15 mph63%29.89 "HgN/A
12:20 PM59 °FPassing clouds.14 mph68%29.89 "HgN/A
11:50 AM59 °FPassing clouds.15 mph63%29.89 "HgN/A
11:20 AM57 °FPassing clouds.9 mph72%29.89 "HgN/A
10:50 AM57 °FPassing clouds.10 mph72%29.89 "HgN/A
10:20 AM55 °FPassing clouds.10 mph77%29.89 "HgN/A
9:50 AM54 °FPassing clouds.10 mph88%29.89 "HgN/A
9:20 AM52 °FPassing clouds.12 mph100%29.89 "HgN/A
8:50 AM50 °FLight fog.9 mph100%29.89 "HgN/A
8:20 AM48 °FFog.8 mph100%29.89 "Hg2 mi
7:50 AM48 °FFog.9 mph100%29.89 "Hg1 mi
7:20 AM50 °FFog.8 mph100%29.89 "Hg1 mi
6:50 AM50 °FFog.8 mph100%29.89 "Hg0 mi
6:20 AM50 °FFog.8 mph100%29.89 "Hg0 mi
5:50 AM50 °FFog.9 mph100%29.89 "Hg0 mi
5:20 AM50 °FFog.12 mph100%29.89 "Hg0 mi
4:50 AM50 °FFog.13 mph100%29.89 "Hg0 mi
4:20 AM50 °FFog.13 mph100%29.89 "Hg0 mi
3:50 AM50 °FFog.13 mph100%29.89 "Hg0 mi
3:20 AM50 °FPassing clouds.9 mph100%29.89 "HgN/A
2:50 AM48 °FClear.8 mph100%29.89 "Hg10 mi
2:20 AM50 °FClear.9 mph94%29.89 "Hg10 mi
1:50 AM50 °FClear.9 mph100%29.89 "Hg10 mi
1:20 AM50 °FClear.10 mph100%29.89 "Hg10 mi
12:20 AM50 °FClear.9 mph100%29.89 "Hg10 mi
11:50 PM
Sun, Aug 30
50 °FClear.10 mph100%29.89 "Hg10 mi
11:20 PM52 °FClear.10 mph94%29.89 "Hg10 mi
10:20 PM52 °FClear.14 mph94%29.89 "Hg10 mi
9:50 PM52 °FSunny.13 mph88%29.89 "Hg10 mi
9:20 PM54 °FSunny.10 mph88%29.89 "Hg10 mi
Weather by CustomWeather, © 2015

See weather overviewHow to use our weather pages